User: anonymous   Login
Location: Columbia
(38.9520°N, 92.3340°W)
Time: 21:49:16
(UTC-06:00)
Language:

SL-08 RB Rocket - Orbit

View from above orbital plane
View from above orbital plane
View from above satellite
View from above satellite

Ground track
Ground track

The orbit data is extracted from the following two-line orbital elements,

1 26387U 00033D   16343.82793816  .00000090  00000-0  24060-4 0  9998
2 26387  97.9979  46.7297 0025708 219.7773 275.5841 14.68222833879949
Epoch (UTC): 08 December 2016 19:52:13
Eccentricity: 0.0025708
inclination: 97.9979°
perigee height: 648 km
apogee height: 685 km
right ascension of ascending node: 46.7297°
argument of perigee: 219.7773°
revolutions per day: 14.68222833
mean anomaly at epoch: 275.5841°
orbit number at epoch: 87994

The dashed part of the orbit path shows where the satellite is in the earth's shadow,  

DLR